Date Time,Air Temp,Sky Temp,Clarity,Light Level,Rain Sensor,Readings
2009-12-05 00:00:02,17.0,12.0,5.1,0.0,22.7,112
2009-12-05 00:05:02,16.9,11.2,5.7,0.0,22.0,112
2009-12-05 00:10:02,17.0,10.7,6.3,0.0,21.5,111
2009-12-05 00:15:02,17.0,10.9,6.1,0.0,23.3,112
2009-12-05 00:20:02,16.9,11.5,5.4,0.0,23.8,111
2009-12-05 00:25:02,17.0,12.7,4.3,0.0,23.1,112
2009-12-05 00:30:02,17.1,11.1,6.0,0.0,21.1,111
2009-12-05 00:35:02,17.2,12.8,4.5,0.0,22.9,111
2009-12-05 00:40:02,17.2,12.1,5.1,0.0,22.1,112
2009-12-05 00:45:02,17.2,12.1,5.1,0.0,23.0,111
2009-12-05 00:50:02,17.1,11.3,5.8,0.0,23.2,112
2009-12-05 00:55:02,17.2,11.9,5.3,0.0,22.2,111
2009-12-05 01:00:02,17.2,11.9,5.3,0.1,20.8,111
2009-12-05 01:05:02,17.2,10.7,6.5,0.0,21.4,111
2009-12-05 01:10:02,17.0,12.5,4.5,0.0,24.5,112
2009-12-05 01:15:02,17.1,12.0,5.1,0.0,24.3,112
2009-12-05 01:20:02,17.0,13.4,3.6,0.0,29.5,111
2009-12-05 01:25:02,17.0,12.2,4.8,0.0,24.4,111
2009-12-05 01:30:02,17.0,8.6,8.4,0.1,21.3,111
2009-12-05 01:35:02,17.0,10.1,6.9,0.1,16.3,112
2009-12-05 01:40:02,17.0,10.0,7.1,0.2,12.6,111
2009-12-05 01:45:02,16.7,3.6,13.1,0.2,2.3,111
2009-12-05 01:50:02,16.9,3.3,13.6,0.3,2.3,112
2009-12-05 01:55:02,16.9,3.2,13.7,0.3,2.3,111
2009-12-05 02:00:02,16.9,5.0,11.9,0.2,2.3,112
2009-12-05 02:05:02,16.9,3.8,13.1,0.3,2.3,112
2009-12-05 02:10:02,17.0,5.0,12.0,0.2,2.3,111
2009-12-05 02:15:02,17.5,0.0,17.4,0.5,2.3,112
2009-12-05 02:20:02,19.1,-1.4,20.5,0.5,2.1,112
2009-12-05 02:25:02,20.7,-5.3,26.0,0.5,2.3,111
2009-12-05 02:30:02,21.6,-3.3,25.0,0.5,2.3,112
2009-12-05 02:35:02,21.9,-2.5,24.4,0.5,2.3,112
2009-12-05 02:40:02,22.0,-1.5,23.5,0.3,2.3,112
2009-12-05 02:45:02,22.1,-4.6,26.7,0.2,2.3,111
2009-12-05 02:50:02,22.1,-0.2,22.3,0.3,2.3,111
2009-12-05 02:55:02,21.9,-4.3,26.3,0.4,2.3,112
2009-12-05 03:00:02,22.1,-3.0,25.0,0.4,2.3,111
2009-12-05 03:05:02,22.0,-4.7,26.7,0.4,2.3,112
2009-12-05 03:10:02,21.9,-10.0,31.9,0.7,2.3,111
2009-12-05 03:15:02,21.8,-2.8,24.6,0.4,2.3,112
2009-12-05 03:20:02,19.7,1.3,18.4,0.3,2.3,110
2009-12-05 03:25:02,18.0,1.6,16.3,0.3,2.2,112
2009-12-05 03:30:02,17.6,-2.1,19.7,0.4,2.3,111
2009-12-05 03:35:02,19.3,-5.9,25.1,0.4,2.2,111
2009-12-05 03:40:02,21.0,-15.1,36.1,0.7,2.3,112
2009-12-05 03:45:02,21.3,-19.9,41.2,0.7,2.3,111
2009-12-05 03:50:02,21.4,-21.5,42.9,0.7,2.3,112
2009-12-05 03:55:02,21.3,-22.3,43.6,0.7,2.3,111
2009-12-05 04:00:02,21.2,-22.3,43.5,0.7,2.3,112
2009-12-05 04:05:02,21.1,-21.9,43.0,0.7,2.3,111
2009-12-05 04:10:02,21.0,-21.6,42.6,0.7,2.3,112
2009-12-05 04:15:02,21.0,-20.7,41.7,0.7,2.3,111
2009-12-05 04:20:02,20.9,-19.2,40.2,0.8,2.3,112
2009-12-05 04:25:02,20.9,-17.6,38.5,0.6,2.3,111
2009-12-05 04:30:02,20.9,-17.3,38.2,0.7,2.3,112
2009-12-05 04:35:02,20.8,-17.1,38.0,0.7,2.3,111
2009-12-05 04:40:02,20.8,-16.1,36.9,0.7,2.3,112
2009-12-05 04:45:02,20.9,-15.0,35.9,0.7,2.3,112
2009-12-05 04:50:02,21.0,-12.8,33.8,0.6,2.3,111
2009-12-05 04:55:02,21.0,-15.9,36.9,0.8,2.3,111
2009-12-05 05:00:02,21.0,-16.8,37.7,0.7,2.3,112
2009-12-05 05:05:02,20.9,-16.4,37.4,0.7,2.3,111
2009-12-05 05:10:02,20.9,-16.5,37.3,0.7,2.3,111
2009-12-05 05:15:02,20.8,-14.9,35.8,0.7,2.3,112
2009-12-05 05:20:02,20.8,-14.5,35.3,0.6,2.3,112
2009-12-05 05:25:02,20.8,-17.6,38.5,0.6,2.3,111
2009-12-05 05:30:02,20.8,-19.1,39.9,0.7,2.3,112
2009-12-05 05:35:02,20.8,-19.8,40.5,0.7,2.3,112
2009-12-05 05:40:02,20.8,-17.4,38.2,0.7,2.3,111
2009-12-05 05:45:02,20.8,-13.3,34.1,0.7,2.3,112
2009-12-05 05:50:02,20.0,0.9,19.1,0.3,2.2,111
2009-12-05 05:55:02,17.5,-0.7,18.2,0.4,2.3,112
2009-12-05 06:00:02,19.4,-5.4,24.8,0.4,2.3,111
2009-12-05 06:05:02,20.6,-4.2,24.8,0.4,2.2,112
2009-12-05 06:10:02,20.8,-2.5,23.4,0.5,2.3,112
2009-12-05 06:15:02,21.0,-7.6,28.7,0.6,2.3,111
2009-12-05 06:20:02,21.1,-8.0,29.1,0.5,2.3,112
2009-12-05 06:25:02,21.0,-9.9,30.9,0.5,2.3,112
2009-12-05 06:30:02,20.9,-11.8,32.7,0.5,2.3,111
2009-12-05 06:35:02,20.9,-11.0,31.9,0.5,2.3,112
2009-12-05 06:40:02,20.9,-5.7,26.6,0.5,2.3,112
2009-12-05 06:45:02,21.0,-1.4,22.4,0.3,2.3,111
2009-12-05 06:50:02,21.1,0.1,21.0,0.3,2.3,112
2009-12-05 06:55:02,19.7,1.3,18.4,0.3,2.3,111
2009-12-05 07:00:02,17.2,-0.9,18.1,0.9,2.4,112
2009-12-05 07:05:02,16.4,1.5,14.9,1.2,2.4,111
2009-12-05 07:10:02,15.9,1.5,14.4,2.0,2.5,111
2009-12-05 07:15:02,15.7,-0.1,15.8,4.7,2.4,111
2009-12-05 07:20:02,15.6,-1.1,16.7,9.7,2.4,112
2009-12-05 07:25:02,17.2,-14.7,31.9,15.2,2.4,111
2009-12-05 07:30:02,19.4,-17.2,36.6,20.6,2.3,112
2009-12-05 07:35:02,20.0,-4.0,24.0,24.0,2.3,111
2009-12-05 07:40:02,20.3,-5.2,25.5,26.5,2.3,112
2009-12-05 07:45:02,20.4,-6.7,27.1,29.1,2.3,111
2009-12-05 07:50:02,20.5,-9.1,29.6,30.1,2.3,112
2009-12-05 07:55:02,20.4,-19.2,39.6,30.8,2.3,112
2009-12-05 08:00:02,20.3,-20.3,40.6,31.3,2.3,111
2009-12-05 08:05:02,20.2,-20.8,41.0,31.5,2.3,112
2009-12-05 08:10:02,20.2,-20.6,40.8,31.7,2.3,111
2009-12-05 08:15:02,20.3,-19.9,40.1,31.8,2.3,111
2009-12-05 08:20:02,20.3,-17.0,37.2,31.9,2.3,112
2009-12-05 08:25:02,20.3,-4.0,24.4,31.8,2.2,111
2009-12-05 08:30:02,19.6,-3.9,23.5,31.9,3.2,112
2009-12-05 08:35:02,20.2,-16.7,36.9,32.1,2.2,112
2009-12-05 08:40:02,20.2,-15.6,35.8,32.1,2.2,111
2009-12-05 08:45:02,20.3,-10.7,31.0,32.2,2.1,111
2009-12-05 08:50:02,20.5,-2.4,22.9,32.2,2.2,112
2009-12-05 08:55:02,20.7,-6.3,27.0,32.3,2.3,112
2009-12-05 09:00:02,20.8,-14.5,35.3,32.3,2.3,111
2009-12-05 09:05:02,20.8,-14.9,35.7,32.4,2.3,112
2009-12-05 09:10:02,20.9,-18.3,39.2,32.4,2.3,111
2009-12-05 09:15:02,20.9,-18.5,39.4,32.4,2.3,112
2009-12-05 09:20:02,20.9,-18.0,39.0,32.4,2.3,111
2009-12-05 09:25:02,20.9,-18.0,38.9,32.4,2.3,111
2009-12-05 09:30:02,20.9,-18.6,39.5,32.4,2.3,112
2009-12-05 09:35:02,20.9,-19.3,40.2,32.4,2.3,111
2009-12-05 09:40:02,21.0,-19.8,40.8,32.4,2.3,112
2009-12-05 09:45:02,21.0,-20.0,40.9,32.4,2.3,112
2009-12-05 09:50:02,21.0,-19.8,40.9,32.5,2.3,111
2009-12-05 09:55:02,21.1,-19.7,40.8,32.5,2.3,112
2009-12-05 10:00:02,21.1,-19.5,40.6,32.5,2.3,111
2009-12-05 10:05:02,21.2,-19.8,41.0,32.5,2.3,112
2009-12-05 10:10:02,21.3,-20.0,41.3,32.5,2.3,112
2009-12-05 10:15:02,21.3,-20.0,41.3,32.4,2.3,111
2009-12-05 10:20:02,21.2,-19.9,41.2,32.4,2.3,112
2009-12-05 10:25:02,21.2,-19.9,41.1,32.4,2.3,112
2009-12-05 10:30:02,21.2,-18.5,39.7,32.4,2.3,111
2009-12-05 10:35:02,21.3,-14.9,36.3,32.5,2.3,112
2009-12-05 10:40:02,21.4,-13.6,35.0,32.5,2.3,111
2009-12-05 10:45:02,21.6,-10.6,32.2,32.5,2.3,112
2009-12-05 10:50:02,21.8,-8.6,30.4,32.5,2.3,111
2009-12-05 10:55:02,21.9,-7.0,28.8,32.5,2.3,112
2009-12-05 11:00:02,21.9,-6.0,27.9,32.4,2.3,112
2009-12-05 11:05:02,21.9,-5.8,27.7,32.5,2.3,111
2009-12-05 11:10:02,21.9,-6.3,28.2,32.5,2.3,112
2009-12-05 11:15:02,22.0,-5.5,27.5,32.5,2.3,111
2009-12-05 11:20:02,22.0,-5.2,27.2,32.5,2.3,112
2009-12-05 11:25:02,22.0,-4.7,26.7,32.4,2.3,111
2009-12-05 11:30:02,22.1,-4.1,26.2,32.4,2.3,112
2009-12-05 11:35:02,22.1,-3.8,25.9,32.4,2.3,112
2009-12-05 11:40:02,22.2,-3.9,26.2,32.5,2.3,112
2009-12-05 11:45:02,22.4,-4.3,26.7,32.5,2.2,112
2009-12-05 11:50:02,22.4,-5.4,27.8,32.5,2.1,112
2009-12-05 11:55:02,22.3,-6.4,28.6,32.5,2.2,111
2009-12-05 12:00:02,22.3,-6.7,28.9,32.5,2.1,112
2009-12-05 12:05:02,22.3,-6.2,28.5,32.5,2.2,111
2009-12-05 12:10:02,22.3,-6.2,28.5,32.5,2.2,112
2009-12-05 12:15:02,22.4,-6.6,29.0,32.5,2.3,111
2009-12-05 12:20:02,22.6,-8.1,30.7,32.5,2.3,112
2009-12-05 12:25:02,22.6,-7.3,30.0,32.5,2.3,111
2009-12-05 12:30:02,22.6,-3.1,25.7,32.4,2.3,112
2009-12-05 12:35:02,22.6,-3.3,25.9,32.4,2.3,112
2009-12-05 12:40:02,22.5,-3.7,26.2,32.4,2.3,112
2009-12-05 12:45:02,22.5,-1.1,23.5,32.4,2.3,111
2009-12-05 12:50:02,22.5,-0.7,23.2,32.4,2.3,112
2009-12-05 12:55:02,22.4,0.6,21.8,32.4,2.3,111
2009-12-05 13:00:02,22.4,0.7,21.6,32.4,2.3,111
2009-12-05 13:05:02,22.1,1.3,20.8,32.5,2.3,112
2009-12-05 13:10:02,22.4,-0.9,23.3,32.5,2.3,112
2009-12-05 13:15:02,22.8,-0.4,23.2,32.5,2.4,111
2009-12-05 13:20:02,22.8,1.5,21.3,32.4,2.3,111
2009-12-05 13:25:02,22.7,1.4,21.2,32.3,2.5,112
2009-12-05 13:30:02,21.3,2.1,19.1,32.3,2.9,110
2009-12-05 13:35:02,19.0,1.9,17.0,32.4,2.7,111
2009-12-05 13:40:02,18.2,1.7,16.5,32.3,2.9,111
2009-12-05 13:45:02,17.9,1.0,16.9,32.3,2.5,112
2009-12-05 13:50:02,17.8,1.5,16.3,32.3,2.2,110
2009-12-05 13:55:02,17.8,1.6,16.1,32.2,2.2,111
2009-12-05 14:00:02,17.8,1.2,16.5,32.3,2.2,111
2009-12-05 14:05:02,17.8,1.4,16.4,32.3,2.2,111
2009-12-05 14:10:02,17.8,1.9,16.0,32.3,2.1,111
2009-12-05 14:15:02,17.8,1.9,15.9,32.2,2.9,112
2009-12-05 14:20:02,17.8,2.0,15.7,32.1,2.7,111
2009-12-05 14:25:02,17.7,2.4,15.4,32.0,2.3,111
2009-12-05 14:30:02,17.8,2.5,15.3,32.1,2.3,111
2009-12-05 14:35:02,17.8,3.1,14.7,32.0,3.2,112
2009-12-05 14:40:02,17.8,3.8,14.0,32.0,3.1,111
2009-12-05 14:45:02,17.7,4.0,13.7,31.8,3.8,112
2009-12-05 14:50:02,17.6,3.1,14.5,31.8,4.7,111
2009-12-05 14:55:02,17.6,2.7,14.8,31.8,5.1,111
2009-12-05 15:00:02,17.5,2.1,15.4,31.8,4.0,111
2009-12-05 15:05:02,17.5,3.0,14.6,31.8,7.3,111
2009-12-05 15:10:02,17.6,3.0,14.5,31.6,11.9,111
2009-12-05 15:15:02,17.6,3.5,14.0,31.0,16.8,112
2009-12-05 15:20:02,17.5,6.4,11.1,30.6,8.4,111
2009-12-05 15:25:02,17.5,6.8,10.8,30.0,15.4,112
2009-12-05 15:30:02,17.6,10.2,7.4,30.5,14.3,111
2009-12-05 15:35:02,17.6,9.5,8.2,29.9,13.8,111
2009-12-05 15:40:02,17.6,10.2,7.4,29.7,16.9,111
2009-12-05 15:45:02,17.7,12.7,4.9,28.7,24.4,111
2009-12-05 15:50:02,17.7,12.8,4.9,28.2,23.8,112
2009-12-05 15:55:02,17.7,13.1,4.6,24.7,16.4,112
2009-12-05 16:00:02,17.7,11.4,6.3,25.0,5.6,111
2009-12-05 16:05:02,17.5,10.9,6.6,24.7,2.3,111
2009-12-05 16:10:02,17.4,6.4,11.0,24.1,2.3,111
2009-12-05 16:15:02,17.4,6.1,11.3,18.3,2.3,112
2009-12-05 16:20:02,17.5,6.0,11.6,14.6,2.3,111
2009-12-05 16:25:02,17.6,5.5,12.1,10.5,2.3,112
2009-12-05 16:30:02,17.7,5.5,12.2,7.2,2.3,111
2009-12-05 16:35:02,17.8,6.2,11.6,3.1,2.3,112
2009-12-05 16:40:02,17.8,6.3,11.5,1.7,2.2,111
2009-12-05 16:45:02,17.9,6.2,11.7,0.8,2.1,111
2009-12-05 16:50:02,17.9,6.2,11.8,0.3,3.2,112
2009-12-05 16:55:02,17.9,5.7,12.3,0.2,10.5,111
2009-12-05 17:00:02,18.0,5.9,12.1,0.1,10.9,112
2009-12-05 17:05:02,18.0,6.4,11.6,0.1,8.8,111
2009-12-05 17:10:02,18.0,6.0,12.0,0.0,5.0,112
2009-12-05 17:15:02,17.9,5.5,12.5,0.0,5.7,112
2009-12-05 17:20:02,17.9,5.6,12.3,0.0,6.9,111
2009-12-05 17:25:02,17.9,5.4,12.5,0.0,6.3,112
2009-12-05 17:30:02,18.0,7.6,10.4,0.0,18.0,111
2009-12-05 17:35:02,18.2,8.2,10.0,0.0,13.9,112
2009-12-05 17:40:02,18.2,8.2,10.0,0.0,11.0,111
2009-12-05 17:45:02,18.1,6.6,11.6,0.0,9.1,111
2009-12-05 17:50:02,18.1,8.9,9.2,0.0,9.8,112
2009-12-05 17:55:02,18.1,9.1,9.0,0.0,15.1,112
2009-12-05 18:00:02,18.2,8.6,9.5,0.0,15.9,111
2009-12-05 18:05:02,18.2,7.0,11.2,0.0,13.4,111
2009-12-05 18:10:02,18.2,8.5,9.7,0.0,15.0,112
2009-12-05 18:15:02,18.2,8.4,9.8,0.0,15.0,112
2009-12-05 18:20:02,18.0,10.2,7.8,0.0,25.2,111
2009-12-05 18:25:02,18.2,9.7,8.5,0.0,21.4,112
2009-12-05 18:30:02,18.2,8.3,9.9,0.0,18.8,111
2009-12-05 18:35:02,18.0,4.9,13.1,0.0,8.3,112
2009-12-05 18:40:02,17.9,4.2,13.7,0.1,4.7,111
2009-12-05 18:45:02,17.8,2.7,15.1,0.1,3.5,112
2009-12-05 18:50:02,17.8,3.4,14.3,0.0,10.2,111
2009-12-05 18:55:02,17.8,3.7,14.1,0.1,7.3,111
2009-12-05 19:00:02,17.8,4.6,13.2,0.0,4.2,112
2009-12-05 19:05:02,17.8,6.4,11.4,0.0,13.9,111
2009-12-05 19:10:02,17.8,9.6,8.2,0.0,25.8,112
2009-12-05 19:15:02,17.9,6.0,11.9,0.0,11.9,111
2009-12-05 19:20:02,17.9,4.8,13.1,0.0,8.2,112
2009-12-05 19:25:02,17.8,5.5,12.3,0.1,9.6,111
2009-12-05 19:30:02,17.8,6.6,11.2,0.1,17.7,111
2009-12-05 19:35:02,17.9,5.1,12.7,0.1,9.7,111
2009-12-05 19:40:02,17.8,5.8,12.1,0.1,8.7,112
2009-12-05 19:45:02,17.7,4.3,13.4,0.1,3.9,112
2009-12-05 19:50:02,17.6,2.5,15.1,0.1,4.2,111
2009-12-05 19:55:02,17.5,1.8,15.7,0.1,2.5,112
2009-12-05 20:00:02,17.2,3.0,14.2,0.1,2.9,111
2009-12-05 20:05:02,17.5,4.2,13.3,0.1,5.6,112
2009-12-05 20:10:02,17.6,3.8,13.8,0.0,3.6,111
2009-12-05 20:15:02,17.6,3.6,14.0,0.1,6.8,111
2009-12-05 20:20:02,17.6,3.5,14.1,0.1,2.7,111
2009-12-05 20:25:02,17.6,3.5,14.1,0.1,2.7,112
2009-12-05 20:30:02,17.7,3.7,13.9,0.1,2.5,111
2009-12-05 20:35:02,17.7,5.6,12.1,0.1,2.4,112
2009-12-05 20:40:02,17.8,5.1,12.7,0.1,4.6,112
2009-12-05 20:45:02,17.8,5.7,12.1,0.0,3.0,111
2009-12-05 20:50:02,17.8,5.9,11.9,0.0,12.3,112
2009-12-05 20:55:02,17.9,9.5,8.5,0.0,27.4,111
2009-12-05 21:00:02,17.9,10.4,7.6,0.0,21.5,112
2009-12-05 21:05:02,18.1,9.8,8.3,0.0,8.4,111
2009-12-05 21:10:02,18.0,9.5,8.5,0.0,2.7,111
2009-12-05 21:15:02,18.0,5.9,12.1,0.0,2.3,111
2009-12-05 21:20:02,18.1,5.7,12.3,0.0,2.3,112
2009-12-05 21:25:02,18.1,5.7,12.4,0.0,2.4,111
2009-12-05 21:30:02,18.2,6.3,11.8,0.0,2.4,112
2009-12-05 21:35:02,18.2,6.4,11.8,0.0,2.3,111
2009-12-05 21:40:02,18.2,6.4,11.8,0.0,2.3,112
2009-12-05 21:45:02,18.3,6.1,12.2,0.1,2.3,111
2009-12-05 21:50:02,18.4,6.3,12.1,0.1,2.3,111
2009-12-05 21:55:02,18.4,6.6,11.9,0.0,2.3,112
2009-12-05 22:00:02,18.4,6.3,12.1,0.0,2.3,111
2009-12-05 22:05:02,18.5,6.2,12.3,0.0,2.3,111
2009-12-05 22:10:02,18.6,6.1,12.5,0.0,2.3,111
2009-12-05 22:15:02,18.6,5.7,12.9,0.1,2.3,112
2009-12-05 22:20:02,18.6,6.2,12.4,0.1,2.3,111
2009-12-05 22:25:02,18.6,6.2,12.4,0.1,2.4,112
2009-12-05 22:30:02,18.6,6.2,12.4,0.1,2.4,111
2009-12-05 22:35:02,18.6,6.1,12.5,0.1,2.4,112
2009-12-05 22:40:02,18.6,5.7,12.9,0.0,3.4,111
2009-12-05 22:45:02,18.5,5.6,12.9,0.1,4.4,112
2009-12-05 22:50:02,18.4,5.5,12.9,0.1,3.3,111
2009-12-05 22:55:02,18.0,6.0,12.0,0.1,2.7,112
2009-12-05 23:00:02,18.6,6.1,12.5,0.1,2.4,111
2009-12-05 23:05:02,18.4,6.2,12.2,0.1,2.6,112
2009-12-05 23:10:02,18.4,6.2,12.2,0.1,2.7,111
2009-12-05 23:15:02,18.4,6.3,12.1,0.0,2.7,112
2009-12-05 23:20:02,18.4,6.3,12.1,0.0,2.6,111
2009-12-05 23:25:02,18.4,6.3,12.2,0.1,2.4,112
2009-12-05 23:30:02,18.5,6.2,12.3,0.0,3.1,111
2009-12-05 23:35:02,18.5,5.5,12.9,0.1,4.4,112
2009-12-05 23:40:02,18.4,6.1,12.4,0.1,3.8,111
2009-12-05 23:45:02,18.4,6.1,12.3,0.1,2.7,112
2009-12-05 23:50:02,18.4,5.8,12.7,0.1,2.5,111
2009-12-05 23:55:02,18.1,6.4,11.7,0.1,2.3,112
